Sarfaq Ittuk — OWDD — position and weather

sailwx.info

Track history (hours):
 
Tides and Currents Weather Stations Pressure Air Temp Water Temp Dewpoint Dewpoint Depression Visibility Wind Speed Wind Dir Waves Ship Positions

Sarfaq Ittuk

Last reported at 2020-Aug-04 11:01 UTC. Time now 2020-Aug-04 14:44 UTC.
Position N 64°10' W 051°43'.

Length 73 m; beam 11.1 m; draft 3.7 m.

Type: Passenger vessel. MMSI: 331000499.

Date/timePositionNaut miles runAvg speedWind from/ knotsBaromVisibWave heightAir tempDewpointWater temp
2020-Aug-04 11:01N 64°10' W 051°43'0 0.0
2020-Aug-04 09:30N 64°10' W 051°43'0 0.0
2020-Aug-04 09:00N 64°10' W 051°43'3 5.3
2020-Aug-04 08:30N 64°09' W 051°48'28 8.0
2020-Aug-04 05:00N 64°29' W 052°32'1111.2
2020-Aug-04 04:00N 64°40' W 052°37'1211.6
2020-Aug-04 03:00N 64°51' W 052°42'41 9.2
2020-Aug-03 22:30N 65°32' W 052°51'42 8.5
2020-Aug-03 17:30N 66°07' W 053°51'  
2020-Aug-01 05:27N 65°03' W 052°48'2510.2
2020-Aug-01 03:00N 64°39' W 052°37'5 9.9
2020-Aug-01 02:30N 64°34' W 052°35'2110.5
2020-Aug-01 00:30N 64°13' W 052°24'510.9
2020-Aug-01 00:00N 64°08' W 052°19'16 6.4
2020-Jul-31 21:30N 64°10' W 051°43'0 0.0
2020-Jul-31 18:01N 64°10' W 051°43'0 0.0
2020-Jul-31 15:30N 64°10' W 051°43'0 0.0
2020-Jul-31 12:00N 64°10' W 051°43'0 0.0
2020-Jul-31 10:00N 64°10' W 051°43'26 7.3
2020-Jul-31 06:30N 63°45' W 051°36'  
2020-Jul-28 14:55N 63°29' W 051°34'2111.1
2020-Jul-28 13:00N 63°51' W 051°34'1510.3
2020-Jul-28 11:30N 64°06' W 051°39'5 9.6
2020-Jul-28 11:00N 64°10' W 051°43'0 0.0
2020-Jul-28 10:30N 64°10' W 051°43'0 0.0
2020-Jul-28 09:30N 64°10' W 051°43'18 6.1
2020-Jul-28 06:30N 64°14' W 052°24'1111.1
2020-Jul-28 05:30N 64°25' W 052°31'4411.0
2020-Jul-28 01:30N 65°08' W 052°50'  
Track history (hours):
 
Tides and Currents Weather Stations Pressure Air Temp Water Temp Dewpoint Dewpoint Depression Visibility Wind Speed Wind Dir Waves Ship Positions

Sarfaq Ittuk

Last reported at 2020-Aug-04 11:01 UTC. Time now 2020-Aug-04 14:44 UTC.
Position N 64°10' W 051°43'.

Length 73 m; beam 11.1 m; draft 3.7 m.

Type: Passenger vessel. MMSI: 331000499.

Date/timePositionNaut miles runAvg speedWind from/ knotsBaromVisibWave heightAir tempDewpointWater temp
2020-Aug-04 11:01N 64°10' W 051°43'0 0.0
2020-Aug-04 09:30N 64°10' W 051°43'0 0.0
2020-Aug-04 09:00N 64°10' W 051°43'3 5.3
2020-Aug-04 08:30N 64°09' W 051°48'28 8.0
2020-Aug-04 05:00N 64°29' W 052°32'1111.2
2020-Aug-04 04:00N 64°40' W 052°37'1211.6
2020-Aug-04 03:00N 64°51' W 052°42'41 9.2
2020-Aug-03 22:30N 65°32' W 052°51'42 8.5
2020-Aug-03 17:30N 66°07' W 053°51'  
2020-Aug-01 05:27N 65°03' W 052°48'2510.2
2020-Aug-01 03:00N 64°39' W 052°37'5 9.9
2020-Aug-01 02:30N 64°34' W 052°35'2110.5
2020-Aug-01 00:30N 64°13' W 052°24'510.9
2020-Aug-01 00:00N 64°08' W 052°19'16 6.4
2020-Jul-31 21:30N 64°10' W 051°43'0 0.0
2020-Jul-31 18:01N 64°10' W 051°43'0 0.0
2020-Jul-31 15:30N 64°10' W 051°43'0 0.0
2020-Jul-31 12:00N 64°10' W 051°43'0 0.0
2020-Jul-31 10:00N 64°10' W 051°43'26 7.3
2020-Jul-31 06:30N 63°45' W 051°36'  
2020-Jul-28 14:55N 63°29' W 051°34'2111.1
2020-Jul-28 13:00N 63°51' W 051°34'1510.3
2020-Jul-28 11:30N 64°06' W 051°39'5 9.6
2020-Jul-28 11:00N 64°10' W 051°43'0 0.0
2020-Jul-28 10:30N 64°10' W 051°43'0 0.0
2020-Jul-28 09:30N 64°10' W 051°43'18 6.1
2020-Jul-28 06:30N 64°14' W 052°24'1111.1
2020-Jul-28 05:30N 64°25' W 052°31'4411.0
2020-Jul-28 01:30N 65°08' W 052°50'  

Dump ship's entire track history